KLM1363 EHAM-LHBP

Flight info

Callsign KLM1363
Flight time 1h 28m
Altitude 35000
Route ARNEM L620 HMM DCT NOMKA DCT KILNU DCT PEPIK DCT NIT M748 ARFOX
Aircraft A21N/M-SDE2E3FGHIJ1RWXY/LB1

Departure

Time 2026-04-18 04:07
Airport Amsterdam Airport Schiphol (EHAM)

Arrival

Time 2026-04-18 05:36
Airport Budapest Liszt Ferenc International Airport (LHBP)
Time Latitude Longitude Altitude Speed Heading
2026-04-18 03:52 52.30895 4.77367 4 ft 0 kts
2026-04-18 03:58 52.30876 4.77367 4 ft 4 kts 352°
2026-04-18 03:58 52.30852 4.77371 4 ft 4 kts 25°
2026-04-18 03:58 52.30843 4.77351 4 ft 4 kts 81°
2026-04-18 03:59 52.30841 4.77335 4 ft 0 kts 79°
2026-04-18 04:00 52.30842 4.77341 4 ft 2 kts 82°
2026-04-18 04:01 52.30841 4.77370 4 ft 4 kts 95°
2026-04-18 04:01 52.30838 4.77422 4 ft 6 kts 96°
2026-04-18 04:01 52.30833 4.77500 4 ft 8 kts 96°
2026-04-18 04:01 52.30850 4.77594 4 ft 10 kts 42°
2026-04-18 04:02 52.30924 4.77614 4 ft 12 kts
2026-04-18 04:02 52.31015 4.77620 4 ft 14 kts
2026-04-18 04:02 52.31118 4.77630 4 ft 16 kts
2026-04-18 04:02 52.31232 4.77638 4 ft 17 kts 11°
2026-04-18 04:03 52.31292 4.77731 4 ft 9 kts 66°
2026-04-18 04:03 52.31302 4.77765 4 ft 0 kts 59°
2026-04-18 04:05 52.31307 4.77777 4 ft 3 kts 58°
2026-04-18 04:05 52.31327 4.77821 5 ft 7 kts 50°
2026-04-18 04:05 52.31355 4.77900 4 ft 9 kts 84°
2026-04-18 04:06 52.31323 4.77941 4 ft 0 kts 182°
2026-04-18 04:07 52.31272 4.77938 5 ft 33 kts 183°
2026-04-18 04:07 52.30778 4.77888 2 ft 106 kts 184°
2026-04-18 04:07 52.29848 4.77796 74 ft 151 kts 183°
2026-04-18 04:07 52.28785 4.77721 647 ft 155 kts 184°
2026-04-18 04:08 52.27679 4.77663 1288 ft 165 kts 181°
2026-04-18 04:08 52.26541 4.78317 1802 ft 190 kts 146°
2026-04-18 04:08 52.25732 4.80155 2267 ft 215 kts 112°
2026-04-18 04:08 52.25563 4.82685 2606 ft 246 kts 90°
2026-04-18 04:09 52.25516 4.85490 3477 ft 245 kts 93°
2026-04-18 04:09 52.25460 4.88353 4170 ft 261 kts 94°
2026-04-18 04:09 52.25380 4.91403 4808 ft 275 kts 94°
2026-04-18 04:09 52.25287 4.94558 5609 ft 281 kts 96°
2026-04-18 04:10 52.24953 4.97700 6480 ft 282 kts 104°
2026-04-18 04:10 52.24517 5.00834 7298 ft 285 kts 104°
2026-04-18 04:10 52.24075 5.04015 8125 ft 289 kts 104°
2026-04-18 04:10 52.23631 5.07240 8941 ft 294 kts 104°
2026-04-18 04:11 52.23191 5.10477 9764 ft 299 kts 104°
2026-04-18 04:11 52.22736 5.13826 10461 ft 309 kts 104°
2026-04-18 04:11 52.22254 5.17356 10831 ft 330 kts 104°
2026-04-18 04:11 52.21738 5.21122 11150 ft 351 kts 104°
2026-04-18 04:12 52.21189 5.25113 11452 ft 371 kts 104°
2026-04-18 04:12 52.20616 5.29314 11736 ft 389 kts 104°
2026-04-18 04:12 52.20019 5.33714 11997 ft 405 kts 104°
2026-04-18 04:12 52.19398 5.38270 12291 ft 417 kts 104°
2026-04-18 04:13 52.18762 5.42913 12769 ft 421 kts 104°
2026-04-18 04:13 52.18119 5.47580 13317 ft 424 kts 104°
2026-04-18 04:13 52.17478 5.52220 13859 ft 427 kts 104°
2026-04-18 04:13 52.16815 5.56952 14316 ft 430 kts 105°
2026-04-18 04:14 52.16140 5.61715 14736 ft 433 kts 105°
2026-04-18 04:14 52.15461 5.66509 15212 ft 435 kts 105°
2026-04-18 04:14 52.14784 5.71325 15680 ft 438 kts 105°
2026-04-18 04:14 52.14099 5.76173 16082 ft 441 kts 105°
2026-04-18 04:15 52.13410 5.81063 16441 ft 444 kts 105°
2026-04-18 04:15 52.12717 5.85978 16804 ft 447 kts 105°
2026-04-18 04:15 52.12027 5.90857 17164 ft 449 kts 105°
2026-04-18 04:15 52.11318 5.95814 17569 ft 450 kts 105°
2026-04-18 04:16 52.10606 6.00780 17952 ft 452 kts 105°
2026-04-18 04:16 52.09892 6.05773 18302 ft 454 kts 105°
2026-04-18 04:16 52.09289 6.10832 18645 ft 458 kts 101°
2026-04-18 04:16 52.08758 6.15950 18944 ft 460 kts 101°
2026-04-18 04:17 52.08226 6.21094 19243 ft 462 kts 101°
2026-04-18 04:17 52.07693 6.26254 19544 ft 465 kts 102°
2026-04-18 04:17 52.07150 6.31455 19848 ft 467 kts 102°
2026-04-18 04:17 52.06608 6.36598 20131 ft 470 kts 102°
2026-04-18 04:18 52.06046 6.41834 20395 ft 472 kts 102°
2026-04-18 04:18 52.05482 6.47095 20654 ft 474 kts 101°
2026-04-18 04:18 52.04914 6.52386 20904 ft 476 kts 102°
2026-04-18 04:18 52.04339 6.57689 21167 ft 478 kts 102°
2026-04-18 04:19 52.03763 6.63014 21423 ft 480 kts 102°
2026-04-18 04:19 52.03185 6.68361 21673 ft 482 kts 102°
2026-04-18 04:19 52.02611 6.73729 21904 ft 483 kts 102°
2026-04-18 04:19 52.01919 6.78994 22081 ft 484 kts 106°
2026-04-18 04:20 52.01088 6.84295 22243 ft 485 kts 107°
2026-04-18 04:20 52.00243 6.89593 22389 ft 486 kts 106°
2026-04-18 04:20 51.99402 6.94898 22523 ft 486 kts 106°
2026-04-18 04:20 51.98565 7.00213 22611 ft 487 kts 106°
2026-04-18 04:21 51.97722 7.05538 22669 ft 487 kts 106°
2026-04-18 04:21 51.96859 7.10843 22710 ft 487 kts 107°
2026-04-18 04:21 51.95897 7.16106 22749 ft 487 kts 108°
2026-04-18 04:21 51.94923 7.21369 22779 ft 487 kts 108°
2026-04-18 04:22 51.93968 7.26569 22791 ft 488 kts 108°
2026-04-18 04:22 51.92998 7.31831 22789 ft 488 kts 108°
2026-04-18 04:22 51.92023 7.37088 22784 ft 487 kts 108°
2026-04-18 04:22 51.91043 7.42340 22792 ft 487 kts 108°
2026-04-18 04:23 51.90059 7.47590 22795 ft 487 kts 108°
2026-04-18 04:23 51.89073 7.52836 22776 ft 487 kts 108°
2026-04-18 04:23 51.88085 7.58072 22730 ft 487 kts 108°
2026-04-18 04:23 51.87095 7.63308 22669 ft 486 kts 108°
2026-04-18 04:24 51.86107 7.68524 22604 ft 485 kts 108°
2026-04-18 04:24 51.85264 7.73807 22532 ft 485 kts 103°
2026-04-18 04:24 51.84557 7.79056 22466 ft 485 kts 103°
2026-04-18 04:24 51.83841 7.84419 22654 ft 489 kts 103°
2026-04-18 04:25 51.83120 7.89791 23064 ft 489 kts 103°
2026-04-18 04:25 51.82392 7.95167 23441 ft 491 kts 103°
2026-04-18 04:25 51.81659 8.00568 23793 ft 493 kts 103°
2026-04-18 04:25 51.80920 8.05995 24078 ft 495 kts 103°
2026-04-18 04:26 51.80178 8.11430 24399 ft 496 kts 103°
2026-04-18 04:26 51.79429 8.16875 24785 ft 496 kts 103°
2026-04-18 04:26 51.78684 8.22296 25168 ft 495 kts 103°
2026-04-18 04:26 51.77950 8.27648 25540 ft 494 kts 103°
2026-04-18 04:27 51.77202 8.33054 25904 ft 494 kts 103°
2026-04-18 04:27 51.76440 8.38469 26277 ft 494 kts 104°
2026-04-18 04:27 51.75668 8.43858 26658 ft 493 kts 104°
2026-04-18 04:27 51.74903 8.49251 27045 ft 492 kts 104°
2026-04-18 04:28 51.74155 8.54558 27416 ft 492 kts 103°
2026-04-18 04:28 51.73399 8.60020 27796 ft 491 kts 103°
2026-04-18 04:28 51.72649 8.65397 28156 ft 491 kts 104°
2026-04-18 04:28 51.71892 8.70756 28510 ft 491 kts 104°
2026-04-18 04:29 51.71137 8.76046 28848 ft 490 kts 104°
2026-04-18 04:29 51.70369 8.81388 29228 ft 490 kts 104°
2026-04-18 04:29 51.69599 8.86745 29605 ft 489 kts 104°
2026-04-18 04:29 51.68831 8.92075 29979 ft 489 kts 104°
2026-04-18 04:30 51.68057 8.97403 30336 ft 488 kts 104°
2026-04-18 04:30 51.67283 9.02721 30647 ft 488 kts 104°
2026-04-18 04:30 51.66507 9.08044 30954 ft 487 kts 104°
2026-04-18 04:30 51.65731 9.13344 31263 ft 487 kts 104°
2026-04-18 04:31 51.64964 9.18576 31567 ft 486 kts 104°
2026-04-18 04:31 51.64184 9.23864 31872 ft 486 kts 105°
2026-04-18 04:31 51.63401 9.29150 32176 ft 485 kts 105°
2026-04-18 04:31 51.62619 9.34419 32488 ft 484 kts 105°
2026-04-18 04:32 51.61832 9.39692 32779 ft 484 kts 105°
2026-04-18 04:32 51.61048 9.44948 33067 ft 483 kts 105°
2026-04-18 04:32 51.60261 9.50209 33343 ft 483 kts 105°
2026-04-18 04:32 51.59471 9.55458 33600 ft 483 kts 105°
2026-04-18 04:33 51.58679 9.60697 33866 ft 482 kts 105°
2026-04-18 04:33 51.57882 9.65937 34130 ft 482 kts 105°
2026-04-18 04:33 51.57086 9.71161 34316 ft 481 kts 105°
2026-04-18 04:33 51.56299 9.76316 34528 ft 481 kts 105°
2026-04-18 04:34 51.55497 9.81520 34730 ft 480 kts 105°
2026-04-18 04:34 51.54699 9.86726 34920 ft 480 kts 105°
2026-04-18 04:34 51.53903 9.91938 35108 ft 480 kts 105°
2026-04-18 04:34 51.53106 9.97133 35237 ft 479 kts 105°
2026-04-18 04:35 51.52307 10.02311 35241 ft 478 kts 105°
2026-04-18 04:35 51.50700 10.12649 35211 ft 477 kts 105°
2026-04-18 04:36 51.49075 10.22987 35207 ft 478 kts 105°
2026-04-18 04:36 51.47434 10.33238 35209 ft 478 kts 105°
2026-04-18 04:37 51.45801 10.43562 35205 ft 478 kts 105°
2026-04-18 04:37 51.43538 10.53502 35207 ft 475 kts 120°
2026-04-18 04:38 51.40093 10.62503 35205 ft 474 kts 124°
2026-04-18 04:38 51.36572 10.71432 35207 ft 474 kts 124°
2026-04-18 04:39 51.33113 10.80331 35208 ft 474 kts 123°
2026-04-18 04:39 51.29626 10.89287 35203 ft 474 kts 123°
2026-04-18 04:40 51.26119 10.98207 35206 ft 474 kts 124°
2026-04-18 04:40 51.22638 11.07073 35207 ft 476 kts 123°
2026-04-18 04:41 51.19132 11.16031 35208 ft 476 kts 123°
2026-04-18 04:41 51.15608 11.24959 35209 ft 476 kts 123°
2026-04-18 04:42 51.12071 11.33877 35214 ft 476 kts 123°
2026-04-18 04:42 51.08531 11.42783 35214 ft 476 kts 123°
2026-04-18 04:43 51.04990 11.51649 35223 ft 479 kts 123°
2026-04-18 04:43 51.01412 11.60577 35222 ft 479 kts 123°
2026-04-18 04:44 50.97832 11.69491 35220 ft 478 kts 123°
2026-04-18 04:44 50.94250 11.78372 35223 ft 478 kts 123°
2026-04-18 04:45 50.90687 11.87180 35229 ft 480 kts 122°
2026-04-18 04:45 50.87074 11.96078 35226 ft 480 kts 122°
2026-04-18 04:46 50.83458 12.04955 35226 ft 480 kts 123°
2026-04-18 04:46 50.79834 12.13817 35227 ft 480 kts 123°
2026-04-18 04:47 50.76203 12.22671 35230 ft 480 kts 123°
2026-04-18 04:47 50.72587 12.31452 35233 ft 481 kts 122°
2026-04-18 04:48 50.68937 12.40288 35233 ft 481 kts 122°
2026-04-18 04:48 50.65287 12.49106 35233 ft 480 kts 122°
2026-04-18 04:49 50.61626 12.57905 35241 ft 480 kts 122°
2026-04-18 04:49 50.57962 12.66685 35251 ft 480 kts 122°
2026-04-18 04:50 50.54310 12.75416 35244 ft 481 kts 122°
2026-04-18 04:50 50.50621 12.84198 35243 ft 482 kts 122°
2026-04-18 04:51 50.46989 12.93025 35237 ft 481 kts 119°
2026-04-18 04:51 50.43582 13.02062 35237 ft 481 kts 118°
2026-04-18 04:52 50.40174 13.11089 35241 ft 482 kts 118°
2026-04-18 04:52 50.36773 13.20069 35240 ft 482 kts 118°
2026-04-18 04:53 50.33340 13.29108 35231 ft 483 kts 118°
2026-04-18 04:53 50.29909 13.38123 35234 ft 482 kts 118°
2026-04-18 04:54 50.26492 13.47066 35234 ft 482 kts 118°
2026-04-18 04:54 50.23042 13.56052 35231 ft 482 kts 118°
2026-04-18 04:55 50.19583 13.65032 35233 ft 482 kts 118°
2026-04-18 04:55 50.16112 13.73997 35234 ft 482 kts 118°
2026-04-18 04:56 50.10906 13.87400 35243 ft 482 kts 118°
2026-04-18 04:56 50.07454 13.96256 35235 ft 482 kts 118°
2026-04-18 04:57 50.03965 14.05177 35237 ft 482 kts 118°
2026-04-18 04:57 50.00476 14.14074 35224 ft 481 kts 118°
2026-04-18 04:58 49.96987 14.22931 35229 ft 480 kts 118°
2026-04-18 04:58 49.93516 14.31713 35234 ft 481 kts 118°
2026-04-18 04:59 49.90010 14.40553 35237 ft 481 kts 118°
2026-04-18 04:59 49.86499 14.49378 35239 ft 481 kts 118°
2026-04-18 05:00 49.83570 14.56711 35244 ft 481 kts 118°
2026-04-18 05:00 49.79474 14.66949 35264 ft 481 kts 117°
2026-04-18 05:01 49.75941 14.75747 35257 ft 481 kts 117°
2026-04-18 05:01 49.73000 14.83043 35259 ft 481 kts 117°
2026-04-18 05:02 49.69453 14.91816 35256 ft 481 kts 117°
2026-04-18 05:02 49.65900 15.00569 35250 ft 480 kts 118°
2026-04-18 05:03 49.61767 15.10728 35266 ft 482 kts 117°
2026-04-18 05:03 49.58798 15.17996 35254 ft 482 kts 117°
2026-04-18 05:04 49.55222 15.26724 35269 ft 482 kts 117°
2026-04-18 05:04 49.51639 15.35443 35255 ft 482 kts 117°
2026-04-18 05:05 49.48046 15.44151 35279 ft 482 kts 117°
2026-04-18 05:05 49.44445 15.52850 35266 ft 482 kts 117°
2026-04-18 05:06 49.40863 15.61483 35261 ft 482 kts 117°
2026-04-18 05:06 49.37250 15.70156 35266 ft 482 kts 117°
2026-04-18 05:07 49.33629 15.78800 35288 ft 481 kts 116°
2026-04-18 05:07 49.30042 15.87365 35257 ft 472 kts 116°
2026-04-18 05:08 49.26478 15.95859 35266 ft 482 kts 116°
2026-04-18 05:08 49.22840 16.04478 35267 ft 482 kts 117°
2026-04-18 05:09 49.19195 16.13086 35260 ft 482 kts 117°
2026-04-18 05:09 49.15543 16.21684 35271 ft 482 kts 116°
2026-04-18 05:10 49.11890 16.30256 35258 ft 480 kts 116°
2026-04-18 05:10 49.08296 16.38662 35257 ft 475 kts 116°
2026-04-18 05:11 49.04648 16.47181 35264 ft 482 kts 116°
2026-04-18 05:11 49.00968 16.55736 35279 ft 482 kts 116°
2026-04-18 05:12 48.97287 16.64266 35256 ft 482 kts 116°
2026-04-18 05:12 48.93620 16.72734 35259 ft 482 kts 116°
2026-04-18 05:13 48.89933 16.81224 35253 ft 479 kts 116°
2026-04-18 05:13 48.86282 16.89605 35269 ft 476 kts 116°
2026-04-18 05:14 48.82587 16.98078 35260 ft 484 kts 116°
2026-04-18 05:14 48.78882 17.06515 35256 ft 484 kts 117°
2026-04-18 05:15 48.74855 17.14778 35252 ft 488 kts 120°
2026-04-18 05:15 48.70759 17.22965 35250 ft 488 kts 120°
2026-04-18 05:16 48.68715 17.27042 35135 ft 482 kts 120°
2026-04-18 05:16 48.66685 17.31087 34136 ft 487 kts 119°
2026-04-18 05:16 48.64618 17.35217 32838 ft 496 kts 120°
2026-04-18 05:16 48.62520 17.39390 31783 ft 500 kts 121°
2026-04-18 05:17 48.60409 17.43572 30831 ft 500 kts 122°
2026-04-18 05:17 48.58326 17.47692 29916 ft 500 kts 122°
2026-04-18 05:17 48.56224 17.51846 28945 ft 498 kts 122°
2026-04-18 05:17 48.54121 17.56002 28081 ft 497 kts 122°
2026-04-18 05:18 48.52027 17.60137 27125 ft 497 kts 122°
2026-04-18 05:18 48.49918 17.64285 26152 ft 499 kts 123°
2026-04-18 05:18 48.47805 17.68432 25212 ft 499 kts 123°
2026-04-18 05:18 48.45693 17.72578 24358 ft 498 kts 123°
2026-04-18 05:19 48.43590 17.76698 23602 ft 494 kts 123°
2026-04-18 05:19 48.41502 17.80780 22795 ft 489 kts 123°
2026-04-18 05:19 48.39459 17.84774 22209 ft 487 kts 124°
2026-04-18 05:19 48.37397 17.88800 21828 ft 484 kts 124°
2026-04-18 05:20 48.35351 17.92789 21449 ft 478 kts 124°
2026-04-18 05:20 48.33332 17.96715 20889 ft 472 kts 124°
2026-04-18 05:20 48.31335 18.00594 20235 ft 465 kts 124°
2026-04-18 05:20 48.29362 18.04402 19616 ft 459 kts 126°
2026-04-18 05:21 48.27276 18.08011 19009 ft 455 kts 129°
2026-04-18 05:21 48.25174 18.11520 18371 ft 450 kts 129°
2026-04-18 05:21 48.23086 18.14996 17627 ft 446 kts 129°
2026-04-18 05:21 48.21053 18.18380 17006 ft 441 kts 129°
2026-04-18 05:22 48.19011 18.21775 16422 ft 435 kts 129°
2026-04-18 05:22 48.16998 18.25118 15903 ft 429 kts 129°
2026-04-18 05:22 48.15013 18.28411 15368 ft 423 kts 129°
2026-04-18 05:22 48.13054 18.31658 14883 ft 418 kts 129°
2026-04-18 05:23 48.11123 18.34857 14459 ft 411 kts 129°
2026-04-18 05:23 48.09220 18.38004 14059 ft 405 kts 129°
2026-04-18 05:23 48.07342 18.41105 13589 ft 400 kts 129°
2026-04-18 05:23 48.05476 18.44182 13001 ft 398 kts 129°
2026-04-18 05:24 48.03647 18.47198 12508 ft 395 kts 129°
2026-04-18 05:24 48.01820 18.50201 12063 ft 386 kts 129°
2026-04-18 05:24 48.00043 18.53118 11776 ft 372 kts 129°
2026-04-18 05:24 47.98330 18.55915 11571 ft 359 kts 130°
2026-04-18 05:25 47.96416 18.58213 11370 ft 350 kts 147°
2026-04-18 05:25 47.94291 18.59870 11200 ft 339 kts 151°
2026-04-18 05:25 47.92213 18.61381 11042 ft 327 kts 151°
2026-04-18 05:25 47.90204 18.62846 10880 ft 316 kts 151°
2026-04-18 05:26 47.88247 18.64289 10505 ft 313 kts 150°
2026-04-18 05:26 47.86294 18.65737 10081 ft 314 kts 150°
2026-04-18 05:26 47.84349 18.67181 9695 ft 310 kts 151°
2026-04-18 05:26 47.82425 18.68610 9274 ft 309 kts 151°
2026-04-18 05:27 47.80539 18.70011 8909 ft 306 kts 151°
2026-04-18 05:27 47.78643 18.71418 8545 ft 303 kts 151°
2026-04-18 05:27 47.76763 18.72811 8154 ft 301 kts 152°
2026-04-18 05:27 47.74900 18.74192 7796 ft 298 kts 152°
2026-04-18 05:28 47.73175 18.75848 7402 ft 294 kts 135°
2026-04-18 05:28 47.71777 18.78041 7035 ft 291 kts 129°
2026-04-18 05:28 47.70442 18.80287 6665 ft 289 kts 128°
2026-04-18 05:28 47.69165 18.82567 6365 ft 284 kts 132°
2026-04-18 05:29 47.67861 18.84711 6193 ft 275 kts 132°
2026-04-18 05:29 47.66599 18.86773 6050 ft 265 kts 132°
2026-04-18 05:29 47.65392 18.88742 5774 ft 261 kts 132°
2026-04-18 05:29 47.64184 18.90712 5534 ft 254 kts 133°
2026-04-18 05:30 47.63020 18.92609 5406 ft 244 kts 133°
2026-04-18 05:30 47.61891 18.94447 5213 ft 239 kts 133°
2026-04-18 05:30 47.60778 18.96259 5008 ft 237 kts 133°
2026-04-18 05:30 47.59675 18.98053 4762 ft 235 kts 133°
2026-04-18 05:31 47.58580 18.99835 4467 ft 233 kts 133°
2026-04-18 05:31 47.57493 19.01603 4180 ft 231 kts 133°
2026-04-18 05:31 47.56413 19.03358 3872 ft 230 kts 133°
2026-04-18 05:31 47.55353 19.05080 3567 ft 229 kts 133°
2026-04-18 05:32 47.54289 19.06808 3256 ft 225 kts 132°
2026-04-18 05:32 47.53242 19.08508 2955 ft 222 kts 131°
2026-04-18 05:32 47.52222 19.10162 2660 ft 210 kts 131°
2026-04-18 05:32 47.51289 19.11674 2456 ft 188 kts 131°
2026-04-18 05:33 47.50462 19.13012 2216 ft 162 kts 129°
2026-04-18 05:33 47.49754 19.14157 1946 ft 138 kts 128°
2026-04-18 05:33 47.49120 19.15186 1748 ft 135 kts 128°
2026-04-18 05:33 47.48499 19.16193 1572 ft 134 kts 129°
2026-04-18 05:34 47.47870 19.17214 1406 ft 134 kts 129°
2026-04-18 05:34 47.47240 19.18237 1184 ft 135 kts 130°
2026-04-18 05:34 47.46601 19.19261 991 ft 136 kts 130°
2026-04-18 05:34 47.45965 19.20296 815 ft 136 kts 131°
2026-04-18 05:35 47.45329 19.21336 653 ft 136 kts 130°
2026-04-18 05:35 47.44692 19.22370 466 ft 131 kts 131°
2026-04-18 05:35 47.44166 19.23223 458 ft 89 kts 131°
2026-04-18 05:35 47.43857 19.23729 460 ft 53 kts 133°
2026-04-18 05:36 47.43709 19.24003 459 ft 25 kts 99°
2026-04-18 05:36 47.43678 19.24267 461 ft 25 kts 104°
2026-04-18 05:36 47.43616 19.24500 462 ft 25 kts 127°
2026-04-18 05:36 47.43497 19.24704 462 ft 27 kts 131°
2026-04-18 05:37 47.43379 19.24903 462 ft 26 kts 131°
2026-04-18 05:37 47.43276 19.25070 463 ft 22 kts 133°
2026-04-18 05:37 47.43257 19.25273 461 ft 24 kts 40°
2026-04-18 05:37 47.43385 19.25440 463 ft 25 kts 43°
2026-04-18 05:38 47.43507 19.25606 463 ft 17 kts 41°
2026-04-18 05:38 47.43538 19.25724 461 ft 14 kts 123°
2026-04-18 05:38 47.43486 19.25820 463 ft 10 kts 120°
2026-04-18 05:38 47.43465 19.25859 461 ft 3 kts 162°
2026-04-18 05:39 47.43435 19.25853 463 ft 6 kts 209°
2026-04-18 05:39 47.43401 19.25813 463 ft 4 kts 223°
2026-04-18 05:39 47.43391 19.25799 463 ft 1 kts 222°
2026-04-18 05:39 47.43388 19.25795 463 ft 0 kts 222°